ハートレー第2彗星

103P/Hartley 2 (2023)

English version
Home page
Updated on September 28, 2023

---------------------------------------------------------------------

・ プロフィール

・ 写真集

・ 軌道要素

Epoch 2023 Feb. 25.0 TT = JDT 2460000.5
T 2023 Oct. 12.52741 TT                                 Rudenko
q   1.0641475            (2000.0)            P               Q
n   0.15216070     Peri.  181.30106     +0.75451634     -0.63879755
a   3.4748366      Node   219.75140     +0.60423167     +0.76565767
e   0.6937561      Incl.   13.61030     +0.25614289     +0.07553822
P   6.48
>From 6325 observations 2004 Sept. 20-2023 Apr. 19, mean residual 0".6.
     Nongravitational parameters A1 = +0.09, A2 = +0.0250.

・ 星図

・ 光度変化

        H = 16.8  G = 0.15                        [    ,-360]  (              〜2022年10月17日)
        m1 =  8.7 + 5 logΔ + 20.0 log r(t - 20)  [-360, 165]  (2022年10月17日〜2024年 3月25日)
        m1 = 11.5 + 5 logΔ + 10.0 log r          [ 165,    ]  (2024年 3月25日〜              )

---------------------------------------------------------------------

軌道要素はM.P.E.C. 2023-H131に掲載されたものです。
星図はステラナビゲータ Ver.10 (アストロアーツ) で作成したものです。
光度グラフはComet for Windowsで作成したものです。

---------------------------------------------------------------------

Copyright(C) Seiichi Yoshida (comet@aerith.net). All rights reserved.